2020-03-29 00:09:55 r, 18.46m,0000000003Hz,0000125864c,0000000.273s, 017.7C,00002195
2020-03-29 00:19:58 r, 18.48m,0000000003Hz,0000127603c,0000000.277s, 017.7C,00002195
2020-03-29 00:29:55 r, 18.47m,0000000003Hz,0000126834c,0000000.275s, 017.7C,00002195
2020-03-29 00:39:55 r, 18.47m,0000000004Hz,0000126894c,0000000.275s, 017.7C,00002195
2020-03-29 00:49:55 r, 18.47m,0000000003Hz,0000126467c,0000000.274s, 017.4C,00002195
2020-03-29 00:59:55 r, 18.47m,0000000004Hz,0000126749c,0000000.275s, 017.4C,00002195
2020-03-29 01:09:55 r, 18.50m,0000000003Hz,0000129591c,0000000.281s, 017.4C,00002195
2020-03-29 01:19:56 r, 18.50m,0000000004Hz,0000129640c,0000000.281s, 017.0C,00002195
2020-03-29 01:29:55 r, 18.50m,0000000003Hz,0000130456c,0000000.283s, 017.0C,00002195
2020-03-29 01:39:58 r, 18.49m,0000000003Hz,0000128705c,0000000.279s, 017.0C,00002195
2020-03-29 01:49:55 r, 18.49m,0000000004Hz,0000129448c,0000000.281s, 017.0C,00002195
2020-03-29 01:59:55 r, 18.50m,0000000004Hz,0000130310c,0000000.283s, 017.0C,00002195
2020-03-29 02:09:56 r, 18.50m,0000000004Hz,0000129603c,0000000.281s, 017.0C,00002195
2020-03-29 02:19:55 r, 18.51m,0000000003Hz,0000130893c,0000000.284s, 016.7C,00002195
2020-03-29 02:29:55 r, 18.51m,0000000004Hz,0000131341c,0000000.285s, 016.7C,00002195
2020-03-29 02:39:56 r, 18.51m,0000000004Hz,0000131319c,0000000.285s, 016.7C,00002195
2020-03-29 02:49:58 r, 18.51m,0000000003Hz,0000130748c,0000000.284s, 016.7C,00002195
2020-03-29 02:59:55 r, 18.52m,0000000004Hz,0000132121c,0000000.287s, 016.7C,00002195
2020-03-29 03:09:57 r, 18.52m,0000000004Hz,0000132298c,0000000.287s, 016.4C,00002195
2020-03-29 03:19:56 r, 18.52m,0000000003Hz,0000132719c,0000000.288s, 016.4C,00002195
2020-03-29 03:29:55 r, 18.52m,0000000003Hz,0000132630c,0000000.288s, 016.4C,00002195
2020-03-29 03:39:55 r, 18.52m,0000000003Hz,0000132500c,0000000.288s, 016.4C,00002195
2020-03-29 03:49:56 r, 18.52m,0000000004Hz,0000132415c,0000000.287s, 016.4C,00002195
2020-03-29 03:59:55 r, 18.50m,0000000004Hz,0000129818c,0000000.282s, 016.1C,00002195
2020-03-29 04:09:55 r, 18.50m,0000000003Hz,0000129557c,0000000.281s, 016.1C,00002195
2020-03-29 04:19:55 r, 18.50m,0000000003Hz,0000130341c,0000000.283s, 016.1C,00002195
2020-03-29 04:29:55 r, 18.50m,0000000004Hz,0000130539c,0000000.283s, 016.1C,00002195
2020-03-29 04:39:56 r, 18.50m,0000000003Hz,0000130395c,0000000.283s, 016.4C,00002195
2020-03-29 04:49:55 r, 18.50m,0000000004Hz,0000130537c,0000000.283s, 016.4C,00002195
2020-03-29 04:59:55 r, 18.50m,0000000003Hz,0000130545c,0000000.283s, 016.4C,00002195
2020-03-29 05:09:55 r, 18.49m,0000000004Hz,0000129263c,0000000.281s, 016.4C,00002195
2020-03-29 05:19:58 r, 18.49m,0000000003Hz,0000128752c,0000000.279s, 016.4C,00002195
2020-03-29 05:29:55 r, 18.49m,0000000004Hz,0000128755c,0000000.279s, 016.1C,00002195
2020-03-29 05:39:55 r, 18.49m,0000000003Hz,0000128836c,0000000.280s, 016.1C,00002195
2020-03-29 05:49:56 r, 18.45m,0000000004Hz,0000124472c,0000000.270s, 016.1C,00002195
2020-03-29 05:59:55 r, 18.33m,0000000004Hz,0000111030c,0000000.241s, 015.7C,00002195
2020-03-29 06:09:55 r, 17.94m,0000000006Hz,0000077715c,0000000.169s, 015.7C,00002195
2020-03-29 06:19:56 r, 17.08m,0000000013Hz,0000035280c,0000000.077s, 015.7C,00002195
2020-03-29 06:29:55 r, 15.45m,0000000057Hz,0000007920c,0000000.017s, 015.7C,00002195
2020-03-29 06:39:55 r, 13.32m,0000000416Hz,0000000000c,0000000.000s, 015.7C,00002195
2020-03-29 06:49:57 r, 11.31m,0000002681Hz,0000000000c,0000000.000s, 015.7C,00002195
2020-03-29 06:59:55 r, 09.51m,0000013964Hz,0000000000c,0000000.000s, 015.7C,00002195
2020-03-29 07:09:55 r, 08.18m,0000047638Hz,0000000000c,0000000.000s, 015.7C,00002195
2020-03-29 07:19:55 r, 07.28m,0000109209Hz,0000000000c,0000000.000s, 015.7C,00002195
2020-03-29 07:29:55 r, 06.63m,0000197915Hz,0000000000c,0000000.000s, 015.7C,00002195
2020-03-29 07:39:57 r, 06.13m,0000315986Hz,0000000000c,0000000.000s, 015.7C,00002195
2020-03-29 07:49:55 r, 00.00m,0000423527Hz,0000000000c,0000000.000s, 016.1C,00002195
2020-03-29 07:59:55 r, 00.00m,0000528043Hz,0000000000c,0000000.000s, 015.7C,00002195
2020-03-29 08:09:55 r, 00.00m,0000562676Hz,0000000000c,0000000.000s, 016.1C,00002195
2020-03-29 08:19:55 r, 00.00m,0000562702Hz,0000000000c,0000000.000s, 016.1C,00002195
2020-03-29 08:29:55 r, 00.00m,0000562762Hz,0000000000c,0000000.000s, 016.4C,00002195
2020-03-29 08:39:55 r, 00.00m,0000562819Hz,0000000000c,0000000.000s, 016.4C,00002195
2020-03-29 08:49:56 r, 00.00m,0000562790Hz,0000000000c,0000000.000s, 016.4C,00002195
2020-03-29 08:59:55 r, 00.00m,0000562832Hz,0000000000c,0000000.000s, 016.7C,00002195
2020-03-29 09:09:55 r, 00.00m,0000562941Hz,0000000000c,0000000.000s, 017.4C,00002195
2020-03-29 09:19:56 r, 00.00m,0000563041Hz,0000000000c,0000000.000s, 018.6C,00002195
2020-03-29 09:29:55 r, 00.00m,0000563156Hz,0000000000c,0000000.000s, 019.6C,00002195
2020-03-29 09:39:55 r, 00.00m,0000563285Hz,0000000000c,0000000.000s, 020.6C,00002195
2020-03-29 09:49:58 r, 00.00m,0000563357Hz,0000000000c,0000000.000s, 021.2C,00002195
2020-03-29 09:59:55 r, 00.00m,0000563454Hz,0000000000c,0000000.000s, 021.9C,00002195
2020-03-29 10:09:58 r, 00.00m,0000563584Hz,0000000000c,0000000.000s, 022.5C,00002195
2020-03-29 10:19:55 r, 00.00m,0000563738Hz,0000000000c,0000000.000s, 023.2C,00002195
2020-03-29 10:29:55 r, 00.00m,0000563790Hz,0000000000c,0000000.000s, 023.8C,00002195
2020-03-29 10:39:55 r, 00.00m,0000563849Hz,0000000000c,0000000.000s, 024.1C,00002195
2020-03-29 10:49:56 r, 00.00m,0000563823Hz,0000000000c,0000000.000s, 024.4C,00002195
2020-03-29 10:59:55 r, 00.00m,0000563962Hz,0000000000c,0000000.000s, 025.4C,00002195
2020-03-29 11:09:55 r, 00.00m,0000564064Hz,0000000000c,0000000.000s, 025.4C,00002195
2020-03-29 11:19:57 r, 00.00m,0000564141Hz,0000000000c,0000000.000s, 026.1C,00002195
2020-03-29 11:29:55 r, 00.00m,0000564238Hz,0000000000c,0000000.000s, 027.0C,00002195
2020-03-29 11:39:55 r, 00.00m,0000564283Hz,0000000000c,0000000.000s, 027.3C,00002195
2020-03-29 11:49:55 r, 00.00m,0000564300Hz,0000000000c,0000000.000s, 027.7C,00002195
2020-03-29 11:59:56 r, 00.00m,0000564388Hz,0000000000c,0000000.000s, 028.3C,00002195
2020-03-29 12:09:55 r, 00.00m,0000564450Hz,0000000000c,0000000.000s, 029.0C,00002195
2020-03-29 12:19:58 r, 00.00m,0000564548Hz,0000000000c,0000000.000s, 029.3C,00002195
2020-03-29 12:29:56 r, 00.00m,0000564507Hz,0000000000c,0000000.000s, 029.9C,00002195
2020-03-29 12:39:58 r, 00.00m,0000564554Hz,0000000000c,0000000.000s, 029.9C,00002195
2020-03-29 12:49:55 r, 00.00m,0000564604Hz,0000000000c,0000000.000s, 030.2C,00002195
2020-03-29 12:59:57 r, 00.00m,0000564595Hz,0000000000c,0000000.000s, 030.6C,00002195
2020-03-29 13:09:56 r, 00.00m,0000564607Hz,0000000000c,0000000.000s, 031.2C,00002195
2020-03-29 13:19:56 r, 00.00m,0000564644Hz,0000000000c,0000000.000s, 031.2C,00002195
2020-03-29 13:29:56 r, 00.00m,0000564726Hz,0000000000c,0000000.000s, 031.2C,00002195
2020-03-29 13:39:55 r, 00.00m,0000564742Hz,0000000000c,0000000.000s, 031.5C,00002195
2020-03-29 13:49:56 r, 00.00m,0000564734Hz,0000000000c,0000000.000s, 031.9C,00002195
2020-03-29 13:59:56 r, 00.00m,0000564822Hz,0000000000c,0000000.000s, 032.2C,00002195
2020-03-29 14:09:56 r, 00.00m,0000564742Hz,0000000000c,0000000.000s, 032.2C,00002195
2020-03-29 14:19:58 r, 00.00m,0000564766Hz,0000000000c,0000000.000s, 032.2C,00002195
2020-03-29 14:29:56 r, 00.00m,0000564755Hz,0000000000c,0000000.000s, 032.2C,00002195
2020-03-29 14:39:56 r, 00.00m,0000564757Hz,0000000000c,0000000.000s, 032.5C,00002195
2020-03-29 14:49:56 r, 00.00m,0000564782Hz,0000000000c,0000000.000s, 032.2C,00002195
2020-03-29 14:59:57 r, 00.00m,0000564683Hz,0000000000c,0000000.000s, 032.2C,00002195
2020-03-29 15:09:56 r, 00.00m,0000564796Hz,0000000000c,0000000.000s, 032.2C,00002195
2020-03-29 15:19:56 r, 00.00m,0000564732Hz,0000000000c,0000000.000s, 032.5C,00002195
2020-03-29 15:29:58 r, 00.00m,0000564703Hz,0000000000c,0000000.000s, 032.5C,00002195
2020-03-29 15:39:56 r, 00.00m,0000564664Hz,0000000000c,0000000.000s, 032.2C,00002195
2020-03-29 15:49:56 r, 00.00m,0000564657Hz,0000000000c,0000000.000s, 032.2C,00002195
2020-03-29 15:59:56 r, 00.00m,0000564665Hz,0000000000c,0000000.000s, 031.9C,00002195
2020-03-29 16:09:56 r, 00.00m,0000564634Hz,0000000000c,0000000.000s, 031.9C,00002195
2020-03-29 16:19:58 r, 00.00m,0000564609Hz,0000000000c,0000000.000s, 031.5C,00002195
2020-03-29 16:29:56 r, 00.00m,0000564635Hz,0000000000c,0000000.000s, 031.5C,00002195
2020-03-29 16:39:56 r, 00.00m,0000564626Hz,0000000000c,0000000.000s, 031.2C,00002195
2020-03-29 16:49:58 r, 00.00m,0000564515Hz,0000000000c,0000000.000s, 030.9C,00002195
2020-03-29 16:59:56 r, 00.00m,0000564409Hz,0000000000c,0000000.000s, 030.6C,00002195
2020-03-29 17:09:56 r, 00.00m,0000564349Hz,0000000000c,0000000.000s, 030.6C,00002195
2020-03-29 17:19:56 r, 00.00m,0000564353Hz,0000000000c,0000000.000s, 030.2C,00002195
2020-03-29 17:29:56 r, 00.00m,0000564257Hz,0000000000c,0000000.000s, 029.6C,00002195
2020-03-29 17:39:56 r, 00.00m,0000564325Hz,0000000000c,0000000.000s, 029.3C,00002195
2020-03-29 17:49:56 r, 00.00m,0000564211Hz,0000000000c,0000000.000s, 029.0C,00002195
2020-03-29 17:59:58 r, 00.00m,0000564132Hz,0000000000c,0000000.000s, 029.0C,00002195
2020-03-29 18:09:56 r, 00.00m,0000564122Hz,0000000000c,0000000.000s, 028.3C,00002195
2020-03-29 18:19:56 r, 00.00m,0000564063Hz,0000000000c,0000000.000s, 028.0C,00002195
2020-03-29 18:29:58 r, 00.00m,0000564034Hz,0000000000c,0000000.000s, 027.3C,00002195
2020-03-29 18:39:56 r, 00.00m,0000563902Hz,0000000000c,0000000.000s, 026.7C,00002195
2020-03-29 18:49:56 r, 00.00m,0000563923Hz,0000000000c,0000000.000s, 026.4C,00002195
2020-03-29 18:59:56 r, 00.00m,0000563750Hz,0000000000c,0000000.000s, 026.1C,00002195
2020-03-29 19:09:56 r, 00.00m,0000531566Hz,0000000000c,0000000.000s, 025.4C,00002195
2020-03-29 19:19:56 r, 00.00m,0000425257Hz,0000000000c,0000000.000s, 025.1C,00002195
2020-03-29 19:29:56 r, 06.13m,0000313384Hz,0000000000c,0000000.000s, 024.4C,00002195
2020-03-29 19:39:56 r, 06.65m,0000193944Hz,0000000000c,0000000.000s, 023.8C,00002195
2020-03-29 19:49:56 r, 07.32m,0000105061Hz,0000000000c,0000000.000s, 023.2C,00002195
2020-03-29 19:59:58 r, 08.36m,0000040665Hz,0000000000c,0000000.000s, 022.5C,00002195
2020-03-29 20:09:56 r, 09.87m,0000010105Hz,0000000000c,0000000.000s, 021.9C,00002195
2020-03-29 20:19:56 r, 11.74m,0000001794Hz,0000000000c,0000000.000s, 021.5C,00002195
2020-03-29 20:29:58 r, 13.79m,0000000270Hz,0000000000c,0000000.000s, 021.2C,00002195
2020-03-29 20:39:56 r, 15.86m,0000000041Hz,0000011465c,0000000.025s, 020.9C,00002195
2020-03-29 20:49:56 r, 17.23m,0000000012Hz,0000040501c,0000000.088s, 020.6C,00002195
2020-03-29 20:59:56 r, 17.91m,0000000006Hz,0000075837c,0000000.165s, 020.3C,00002195
2020-03-29 21:09:56 r, 18.19m,0000000005Hz,0000097826c,0000000.212s, 020.3C,00002195
2020-03-29 21:19:56 r, 18.28m,0000000004Hz,0000106582c,0000000.231s, 019.9C,00002195
2020-03-29 21:29:56 r, 18.28m,0000000005Hz,0000106868c,0000000.232s, 019.9C,00002195
2020-03-29 21:39:56 r, 18.29m,0000000004Hz,0000108456c,0000000.235s, 019.6C,00002195
2020-03-29 21:49:56 r, 18.30m,0000000004Hz,0000108722c,0000000.236s, 019.3C,00002195
2020-03-29 21:59:56 r, 18.33m,0000000004Hz,0000112048c,0000000.243s, 019.3C,00002195
2020-03-29 22:09:56 r, 18.33m,0000000004Hz,0000112531c,0000000.244s, 019.0C,00002195
2020-03-29 22:19:57 r, 18.34m,0000000004Hz,0000113179c,0000000.246s, 018.6C,00002195
2020-03-29 22:29:56 r, 18.33m,0000000004Hz,0000112573c,0000000.244s, 018.6C,00002195
2020-03-29 22:39:56 r, 18.33m,0000000004Hz,0000112442c,0000000.244s, 018.3C,00002195
2020-03-29 22:49:56 r, 18.34m,0000000004Hz,0000113198c,0000000.246s, 018.3C,00002195
2020-03-29 22:59:56 r, 18.34m,0000000004Hz,0000113400c,0000000.246s, 018.3C,00002195
2020-03-29 23:09:56 r, 18.34m,0000000004Hz,0000113494c,0000000.246s, 018.0C,00002195
2020-03-29 23:19:56 r, 18.35m,0000000004Hz,0000114148c,0000000.248s, 018.0C,00002195
2020-03-29 23:29:57 r, 18.35m,0000000004Hz,0000114035c,0000000.247s, 018.0C,00002195
2020-03-29 23:39:56 r, 18.36m,0000000004Hz,0000114239c,0000000.248s, 018.0C,00002195
2020-03-29 23:49:56 r, 18.36m,0000000004Hz,0000114504c,0000000.248s, 017.7C,00002195
2020-03-29 23:59:56 r, 18.37m,0000000004Hz,0000115193c,0000000.250s, 017.7C,00002195
